Flag for Poland Weather past 2 weeks in Zielona Góra, Poland

Now
61 °F

Partly sunny.


Feels Like: 61 °F
Forecast: 51 / 69 °F
Wind: 2 mph from Northeast

Location: Zielona Gora

Current Time: Aug 27, 2014 at 6:05:15 PM

Latest Report: Aug 27, 2014 at 5:00 PM


Visibility: 13 mi

Pressure: 29.94 "Hg

Humidity: 65%

Dew point: 49 °F

Location of Zielona GóraLocation

Historic Weather in Zielona Góra — Graph

°F

Zielona Góra temperature yesterday

Maximum temperature yesterday: 56 °F (at 6:00 PM)
Minimum temperature yesterday: 49 °F (at 8:00 AM)
Average temperature yesterday: 52 °F

Past Weeks' High & Low Weather Summary

 TemperatureHumidityPressure
High72 °F (Aug 12, 6:00 PM)98% (Aug 14, 1:00 AM)30.05 "Hg (Aug 14, 1:00 AM)
Low45 °F (Aug 25, 6:00 AM)39% (Aug 22, 2:00 PM)29.62 "Hg (Aug 14, 12:00 AM)
Average59 °F72%29.88 "Hg
* Reported Aug 12 4:00 PM — Aug 27 4:00 PM, Zielona Góra, Weather by CustomWeather, © 2014

Note: Actual official high and low records may vary slightly from our data, if they occured in-between our weather recording intervals... More about our weather records

Advertising

Zielona Góra weather history for previous 24 hours

 ConditionsComfort  
Time TempWeatherWind HumidityBarometerVisibility
4:00 PM
Aug 27
59 °FSprinkles. Overcast.3 mph64%29.96 "Hg19 mi
3:00 PM66 °FPartly sunny.5 mph46%29.92 "Hg31 mi
2:00 PM65 °FScattered clouds.3 mph48%29.92 "Hg31 mi
1:00 PM64 °FPartly sunny.3 mph55%29.92 "Hg31 mi
12:00 PM62 °FScattered clouds.3 mph64%29.92 "Hg31 mi
10:00 AM56 °FPartly sunny.2 mph77%29.90 "Hg6 mi
9:00 AM54 °FFog.2 mph83%29.89 "Hg5 mi
8:00 AM49 °FFog.2 mph98%29.88 "Hg2 mi
7:00 AM50 °FFog.2 mph97%29.85 "Hg2 mi
6:00 AM51 °FFog.2 mph96%29.84 "Hg2 mi
5:00 AM50 °FFog.2 mph98%29.84 "Hg2 mi
4:00 AM50 °FFog.2 mph98%29.83 "Hg2 mi
3:00 AM50 °FFog.2 mph98%29.83 "Hg2 mi
2:00 AM50 °FFog.2 mph97%29.83 "Hg2 mi
1:00 AM50 °FFog.2 mph97%29.83 "Hg3 mi
12:00 AM50 °FFog.1 mph96%29.82 "Hg3 mi
11:00 PM
Aug 26
51 °FFog.2 mph96%29.81 "Hg3 mi
10:00 PM51 °FFog.1 mph95%29.80 "Hg3 mi
9:00 PM51 °FFog.1 mph95%29.80 "Hg3 mi
8:00 PM53 °FPassing clouds.2 mph94%29.78 "Hg9 mi
7:00 PM54 °FPartly sunny.1 mph90%29.78 "Hg9 mi
6:00 PM56 °FPartly sunny.2 mph85%29.77 "Hg12 mi
Weather by CustomWeather, © 2014

See weather overviewHow to use our weather pages